Flag for Spain Weather past 2 weeks in Valencia, Spain

Now
90 °F

Passing clouds.


Feels Like: 96 °F
Forecast: 78 / 83 °F
Wind: No wind

Location: Valencia / Aeropuerto

Current Time: Jul 29, 2015 at 11:51:50 AM

Latest Report: Jul 29, 2015 at 11:30 AM


Visibility: N/A

Pressure: 29.86 "Hg

Humidity: 55%

Dew point: 72 °F

Location of ValenciaLocation

Historic Weather in Valencia — Graph

°F

Valencia temperature yesterday

Maximum temperature yesterday: 90 °F (at 1:00 PM)
Minimum temperature yesterday: 79 °F (at 6:00 AM)
Average temperature yesterday: 84 °F

Past Weeks' High & Low Weather Summary

 TemperatureHumidityPressure
High97 °F (Jul 24, 5:00 PM)94% (Jul 19, 3:00 AM)30.07 "Hg (Jul 19, 3:00 AM)
Low72 °F (Jul 16, 7:00 AM)28% (Jul 24, 6:00 PM)29.71 "Hg (Jul 24, 5:00 PM)
Average83 °F68%29.95 "Hg
* Reported Jul 14 10:00 AM — Jul 29 10:30 AM, Valencia, Weather by CustomWeather, © 2015

Note: Actual official high and low records may vary slightly from our data, if they occured in-between our weather recording intervals... More about our weather records

Advertising

Valencia weather history for previous 24 hours

 ConditionsComfort  
Time TempWeatherWind HumidityBarometerVisibility
10:30 AM
Wed, Jul 29
86 °FPartly sunny.No wind62%29.89 "HgN/A
9:30 AM82 °FScattered clouds.2 mph79%29.89 "HgN/A
9:00 AM81 °FPartly sunny.3 mph84%29.89 "HgN/A
8:30 AM81 °FOvercast.3 mph84%29.89 "HgN/A
8:00 AM81 °FPartly sunny.3 mph84%29.89 "HgN/A
7:30 AM79 °FPassing clouds.2 mph84%29.89 "HgN/A
7:00 AM79 °FPassing clouds.2 mph89%29.89 "HgN/A
6:30 AM79 °FPassing clouds.2 mph89%29.86 "HgN/A
6:00 AM79 °FPassing clouds.2 mph89%29.89 "HgN/A
5:30 AM79 °FPassing clouds.5 mph89%29.86 "HgN/A
5:00 AM79 °FPassing clouds.3 mph89%29.86 "HgN/A
4:30 AM81 °FPassing clouds.No wind84%29.86 "HgN/A
4:00 AM81 °FClear.1 mph84%29.86 "Hg10 mi
3:30 AM81 °FClear.1 mph84%29.89 "Hg10 mi
3:00 AM81 °FPassing clouds.No wind84%29.89 "HgN/A
2:30 AM81 °FPassing clouds.1 mph84%29.89 "HgN/A
2:00 AM81 °FPassing clouds.1 mph84%29.92 "HgN/A
1:30 AM81 °FPassing clouds.2 mph84%29.92 "HgN/A
1:00 AM81 °FPassing clouds.3 mph84%29.92 "HgN/A
11:00 PM
Tue, Jul 28
82 °FPassing clouds.6 mph79%29.89 "HgN/A
10:30 PM82 °FPassing clouds.6 mph79%29.89 "HgN/A
10:00 PM82 °FPassing clouds.6 mph79%29.89 "HgN/A
9:30 PM84 °FScattered clouds.7 mph74%29.86 "HgN/A
9:00 PM84 °FScattered clouds.8 mph74%29.86 "HgN/A
8:00 PM86 °FScattered clouds.8 mph70%29.86 "HgN/A
7:30 PM86 °FPassing clouds.9 mph70%29.86 "HgN/A
7:00 PM86 °FPassing clouds.10 mph70%29.86 "HgN/A
6:30 PM88 °FPassing clouds.12 mph62%29.86 "HgN/A
6:00 PM88 °FPassing clouds.12 mph62%29.86 "HgN/A
5:30 PM88 °FPassing clouds.12 mph62%29.86 "HgN/A
5:00 PM88 °FPassing clouds.12 mph62%29.89 "HgN/A
4:30 PM88 °FPassing clouds.12 mph62%29.89 "HgN/A
4:00 PM88 °FPassing clouds.10 mph62%29.89 "HgN/A
3:30 PM88 °FPassing clouds.13 mph62%29.92 "HgN/A
3:00 PM90 °FPassing clouds.13 mph63%29.92 "HgN/A
2:30 PM90 °FPassing clouds.10 mph59%29.92 "HgN/A
2:00 PM88 °FPassing clouds.12 mph59%29.95 "HgN/A
1:30 PM88 °FPartly sunny.9 mph59%29.95 "HgN/A
1:00 PM90 °FBroken clouds.8 mph55%29.95 "HgN/A
12:30 PM86 °FBroken clouds.6 mph62%29.95 "HgN/A
12:00 PM88 °FBroken clouds.8 mph62%29.95 "HgN/A
11:30 AM86 °FBroken clouds.8 mph66%29.95 "HgN/A
11:00 AM84 °FBroken clouds.8 mph70%29.95 "HgN/A
Weather by CustomWeather, © 2015

See weather overviewHow to use our weather pages